STARLINK-35464

Last updated on Mon Oct 20 2025 00:02:08 GMT+0000 (Coordinated Universal Time)

1 65881U 25223AD 25292.25002315 -.01907961 00000+0 -21804-1 0 9990 2 65881 53.1598 234.9062 0001238 94.4168 48.8473 15.64690723 3687
UTC large
Height (km)
Speed (km/s)
/
Latitude / Longitude
Inclination (degrees)
Orbital Period (minutes)
Azimuth
Elevation
Range (km)
Doppler Factor

Next 0 passes for location: London (51.5072 / 0.1276)

Sorry there are no passes over London.